CZ-6A DEB, 56237

Orbit data source: Space-Track

CZ-6A DEB, 56237 is space debris in SSO originally from a launch on Fri, 11 Nov 2022 UTC launched from the Taiyaun Space Center, China (TSC). Debris objects in space refer to the collection of defunct objects orbiting the Earth. Examples of debris include non-operational satellites, rocket bodies, and fragments generated from explosions, collisions, or faulty payload assembly.

Loading next visibility...
Identifier
56237, 2022-151ABD
Orbit
SSO
Country
Flag of CNCN / PRC
Related business
Manufacturer
SAST
Mission
Spacecraft
Bus & Motor
Unknown
Mass
Unknown
Launch date (UTC)
2022-11-11 (4 years ago)
Launch vehicle
Unknown
Launch site
Taiyaun Space Center, China (TSC)
Object type
Payload
Rocket body
Debris
Shape & HBR
Unknown shape, 0.1 m
Radar Cross Section
Medium (>0.1 m² and <1 m²)

Expand to show TLE details & history
Last TLE update: 3 days ago

TLE from 3 days ago
0 CZ-6A DEB
1 56237U 22151ABD 26170.37492324  .00000762  00000-0  55979-3 0  9997
2 56237  98.9028 136.9035 0130020  79.7852 281.7943 13.94661782165173
Epoch: 2026-06-19T08:59Z
TLE epoch observation values (Epoch: 2026-06-19T08:59:53.367Z)
Latitude
-0.00009°
Longitude
94.32635°
Altitude
897.021 km
Speed
7.413 km/s
True Right ascension
09h 07m 36s
True Declination
0° 00' 00"
Sunlit
Object was in daylight at epoch
Visualization orbit readout
Latitude
Unknown
Longitude
Unknown
Altitude
Unknown
Speed
Unknown
Apparent Right ascension
Unknown
Apparent Declination
Unknown
Sunlit
N/A
Visualization observer readout
Local Sidereal Time
21:38:09
Azimuth
Unknown
Elevation
Unknown
Doppler factor
Unknown
Orbital elements
Apogee altitude
1,004.295 km
Perigee altitude
814.786 km
Semi-major axis
7,287.678 km
Eccentricity
0.013
Inclination
98.9028°
RAAN
136.9035°
Arg. of periapsis
79.7852°
True anomaly
280.33113°
Mean anomaly
281.7943°
Eccentric anomaly
281.06318°
Mean motion
3.48867 °/min
Orbital period
103.19 mins
BSTAR
0.00055979
Loading maneuver chart data...
Computing Atmospheric mass density...
Loading historical data...
Loading historical data...
Loading historical data...
Loading historical data...
Loading historical data...
Loading historical data...
Loading historical data...

Documentation

Showing up to 5 results
|